Houghton Lake, MI

4:06 AM EDT on June 29, 2017 (GMT -0400)
Roscommon County

Weather History for KHTL - February, 2012

Change the Weather History Date:

Sunday, February 12, 2012

  Actual Average Record
Temperature  
Mean Temperature 23 °F 19 °F  
Max Temperature 28 °F 29 °F 54 °F (1932)
Min Temperature 18 °F 10 °F -24 °F (1981)
Degree Days  
Heating Degree Days 42 46  
Month to date heating degree days 465 559  
Since 1 July heating degree days 4358 5171  
Moisture  
Dew Point 12 °F    
Average Humidity 62    
Maximum Humidity 77    
Minimum Humidity 46    
Precipitation  
Precipitation T in 0.04 in 0.60 in (1922)
Month to date precipitation 0.17 0.46  
Year to date precipitation 2.66 1.97  
Snow  
Snow 0.40 in 0.40 in 6.00 in (1922)
Month to date snowfall 4.3 5.7  
Since 1 July snowfall 38.8 47.8  
Snow Depth 12.00 in    
Sea Level Pressure  
Sea Level Pressure 30.08 in    
Wind  
Wind Speed 11 mph (West)    
Max Wind Speed 20 mph    
Max Gust Speed 29 mph    
Visibility 8 miles    
Events Snow    
T = Trace of Precipitation, MM = Missing Value Source: NWS Daily Summary

Daily Weather History Graph

Daily Weather History Graph

Search for Another Location

Airport or City:

Trip Planner

Search our weather history database for the weather conditions in past years. The results will help you decide how hot, cold, wet, or windy it might be!

Date:

Astronomy

Feb. 12, 2012 Rise Set
Actual Time 7:43 AM EST 6:02 PM EST
Civil Twilight 7:13 AM EST 6:33 PM EST
Nautical Twilight 6:39 AM EST 7:07 PM EST
Astronomical Twilight 6:05 AM EST 7:40 PM EST
Moon No Moon Rise 9:45 AM EST (2/12)
Length of Visible Light 11h 19m
Length of Day
10h 19m
Waning Gibbous, 72% of the Moon is Illuminated
Feb 12
Waning Gibbous
Feb 14
Last Quarter
Feb 21
New
Feb 29
First Quarter
Mar 8
Full

Hourly Weather History & Observations

Time (EST) Temp. Windchill Dew Point Humidity Pressure Visibility Wind Dir Wind Speed Gust Speed Precip Events Conditions
12:53 AM 18.0 °F 4.8 °F 10.9 °F 74% 30.12 in 8.0 mi West 12.7 mph - 0.00 in Snow Light Snow
1:53 AM 18.0 °F 4.2 °F 12.0 °F 78% 30.10 in 9.0 mi West 13.8 mph 20.7 mph 0.00 in Snow Light Snow
2:53 AM 19.0 °F 6.1 °F 12.0 °F 74% 30.08 in 7.0 mi West 12.7 mph - 0.00 in Snow Light Snow
3:53 AM 19.0 °F 6.1 °F 12.9 °F 77% 30.08 in 6.0 mi West 12.7 mph - 0.00 in Snow Light Snow
4:04 AM 19.4 °F 6.6 °F 12.2 °F 74% 30.01 in 8.0 mi West 12.7 mph 19.6 mph 0.00 in Snow Light Snow
4:53 AM 19.0 °F 6.8 °F 14.0 °F 81% 30.08 in 6.0 mi WNW 11.5 mph 20.7 mph 0.00 in Snow Light Snow
5:13 AM 19.4 °F 6.6 °F 14.0 °F 80% 30.01 in 7.0 mi West 12.7 mph - 0.00 in Snow Light Snow
5:53 AM 19.9 °F 9.3 °F 14.0 °F 78% 30.08 in 7.0 mi West 9.2 mph - 0.00 in Snow Light Snow
6:53 AM 19.9 °F 7.3 °F 14.0 °F 78% 30.09 in 4.0 mi WNW 12.7 mph 20.7 mph 0.00 in Snow Light Snow
7:53 AM 19.0 °F 5.6 °F 14.0 °F 81% 30.11 in 4.0 mi WNW 13.8 mph 19.6 mph 0.00 in Snow Light Snow
8:14 AM 19.4 °F 7.9 °F 12.2 °F 74% 30.05 in 2.5 mi West 10.4 mph - 0.00 in Snow Light Snow
8:26 AM 19.4 °F 8.6 °F 12.2 °F 74% 30.05 in 3.0 mi WNW 9.2 mph - 0.00 in Snow Light Snow
8:53 AM 19.0 °F 9.0 °F 12.9 °F 77% 30.12 in 4.0 mi West 8.1 mph - 0.00 in Snow Light Snow
9:53 AM 19.9 °F 7.9 °F 12.9 °F 74% 30.13 in 7.0 mi WNW 11.5 mph - 0.00 in Snow Light Snow
10:53 AM 21.0 °F 8.1 °F 12.9 °F 71% 30.14 in 8.0 mi West 13.8 mph - 0.00 in Snow Light Snow
11:53 AM 21.9 °F 7.8 °F 12.9 °F 68% 30.13 in 10.0 mi West 17.3 mph 26.5 mph 0.00 in   Overcast
12:53 PM 24.1 °F 12.0 °F 12.9 °F 62% 30.12 in 10.0 mi WNW 13.8 mph 21.9 mph N/A   Mostly Cloudy
1:05 PM 23.0 °F 10.1 °F 12.2 °F 63% 30.06 in 10.0 mi WNW 15.0 mph 24.2 mph N/A   Scattered Clouds
1:53 PM 26.1 °F 14.5 °F 12.0 °F 55% 30.09 in 10.0 mi West 13.8 mph - N/A   Clear
2:53 PM 28.0 °F 18.6 °F 12.0 °F 51% 30.07 in 10.0 mi West 10.4 mph - N/A   Clear
3:53 PM 28.0 °F 17.0 °F 10.9 °F 49% 30.08 in 10.0 mi West 13.8 mph - N/A   Clear
4:53 PM 27.0 °F 15.6 °F 12.0 °F 53% 30.08 in 10.0 mi West 13.8 mph - N/A   Clear
5:53 PM 26.1 °F 15.6 °F 10.9 °F 53% 30.07 in 10.0 mi West 11.5 mph - N/A   Clear
6:53 PM 23.0 °F 13.9 °F 12.0 °F 63% 30.08 in 10.0 mi West 8.1 mph - N/A   Clear
7:53 PM 21.0 °F 12.4 °F 10.9 °F 65% 30.08 in 10.0 mi WSW 6.9 mph - N/A   Clear
8:53 PM 21.0 °F 13.4 °F 12.0 °F 68% 30.07 in 10.0 mi WSW 5.8 mph - N/A   Clear
9:53 PM 19.9 °F 13.4 °F 12.0 °F 71% 30.07 in 10.0 mi SW 4.6 mph - N/A   Clear
10:53 PM 21.0 °F 11.4 °F 12.0 °F 68% 30.06 in 10.0 mi WSW 8.1 mph - N/A   Clear
11:53 PM 21.9 °F 12.5 °F 12.9 °F 68% 30.05 in 10.0 mi WSW 8.1 mph - N/A   Clear